Weather History for Franklin, NC

Change the Weather History Date:

Monday, January 30, 2012

  Actual Average (KTOC) Record (KTOC)
Temperature  
Mean Temperature 38 °F -  
Max Temperature 57 °F 56 °F 41 °F (2014)
Min Temperature 19 °F 32 °F 17 °F (2014)
Degree Days  
Heating Degree Days 27    
Moisture  
Dew Point 20 °F    
Average Humidity 66    
Maximum Humidity 93    
Minimum Humidity 18    
Precipitation  
Precipitation 0.00 in - - ()
Sea Level Pressure  
Sea Level Pressure 30.35 in    
Wind  
Wind Speed 1 mph (WSW)    
Max Wind Speed 9 mph    
Max Gust Speed -    
Visibility 10 miles    
Events      
Averages and records for this station are not official NWS values.
T = Trace of Precipitation, MM = Missing Value Source: NWS Daily Summary

Daily Weather History Graph

Daily Weather History Graph

Search for Another Location

Airport:

Trip Planner

Search our weather history database for the weather conditions in past years. The results will help you decide how hot, cold, wet, or windy it might be!

Date:

Astronomy

Jan. 30, 2012 Rise Set
Actual Time 7:34 AM EST 5:59 PM EST
Civil Twilight 7:07 AM EST 6:26 PM EST
Nautical Twilight 6:37 AM EST 6:56 PM EST
Astronomical Twilight 6:07 AM EST 7:26 PM EST
Moon 11:15 AM EST (1/30) 12:24 AM EST (1/30)
Length of Visible Light 11h 18m
Length of Day
10h 24m
Waxing Crescent, 46% of the Moon is Illuminated
Jan 30
Waxing Crescent
Jan 30
First Quarter
Feb 7
Full
Feb 14
Last Quarter
Feb 21
New

Hourly Weather History & Observations

Time (EST) Temp. Windchill Dew Point Humidity Pressure Visibility Wind Dir Wind Speed Gust Speed Precip Events Conditions
12:35 AM 21.2 °F - 19.4 °F 93% 30.31 in 10.0 mi Calm Calm - N/A   Clear
12:55 AM 21.2 °F - 19.4 °F 93% 30.31 in 10.0 mi Calm Calm - N/A   Clear
1:15 AM 21.2 °F - 19.4 °F 93% 30.31 in 10.0 mi Calm Calm - N/A   Clear
1:35 AM 21.2 °F - 19.4 °F 93% 30.31 in 10.0 mi Calm Calm - N/A   Clear
1:55 AM 21.2 °F - 17.6 °F 86% 30.31 in 10.0 mi Calm Calm - N/A   Clear
2:15 AM 21.2 °F - 19.4 °F 93% 30.32 in 10.0 mi Calm Calm - N/A   Clear
2:35 AM 21.2 °F - 19.4 °F 93% 30.32 in 10.0 mi Calm Calm - N/A   Clear
2:55 AM 21.2 °F - 17.6 °F 86% 30.32 in 10.0 mi Calm Calm - N/A   Clear
3:15 AM 21.2 °F - 17.6 °F 86% 30.32 in 10.0 mi Calm Calm - N/A   Clear
3:35 AM 21.2 °F - 19.4 °F 93% 30.32 in 10.0 mi Calm Calm - N/A   Clear
3:55 AM 21.2 °F - 17.6 °F 86% 30.32 in 10.0 mi Calm Calm - N/A   Clear
4:15 AM 21.2 °F - 17.6 °F 86% 30.32 in 10.0 mi Calm Calm - N/A   Clear
4:35 AM 19.4 °F - 17.6 °F 93% 30.33 in 10.0 mi Calm Calm - N/A   Clear
4:55 AM 21.2 °F - 19.4 °F 93% 30.34 in 10.0 mi Calm Calm - N/A   Clear
5:15 AM 19.4 °F - 17.6 °F 93% 30.34 in 10.0 mi Calm Calm - N/A   Clear
5:35 AM 19.4 °F - 17.6 °F 93% 30.34 in 10.0 mi Calm Calm - N/A   Clear
5:55 AM 19.4 °F - 17.6 °F 93% 30.34 in 10.0 mi Calm Calm - N/A   Clear
6:15 AM 21.2 °F - 17.6 °F 86% 30.35 in 10.0 mi Calm Calm - N/A   Clear
6:35 AM 19.4 °F - 17.6 °F 93% 30.36 in 10.0 mi Calm Calm - N/A   Clear
6:55 AM 19.4 °F - 17.6 °F 93% 30.37 in 10.0 mi Calm Calm - N/A   Clear
7:15 AM 19.4 °F - 17.6 °F 93% 30.37 in 10.0 mi Calm Calm - N/A   Clear
7:35 AM 19.4 °F - 17.6 °F 93% 30.39 in 10.0 mi Calm Calm - N/A   Clear
7:55 AM 21.2 °F - 17.6 °F 86% 30.40 in 10.0 mi Calm Calm - N/A   Clear
8:15 AM 21.2 °F - 17.6 °F 86% 30.40 in 10.0 mi Calm Calm - N/A   Clear
8:35 AM 23.0 °F - 19.4 °F 86% 30.42 in 10.0 mi Calm Calm - N/A   Clear
8:55 AM 24.8 °F - 21.2 °F 86% 30.43 in 10.0 mi Calm Calm - N/A   Clear
9:15 AM 28.4 °F - 23.0 °F 80% 30.43 in 10.0 mi Calm Calm - N/A   Clear
9:35 AM 30.2 °F - 23.0 °F 75% 30.43 in 10.0 mi Calm Calm - N/A   Clear
9:55 AM 32.0 °F - 23.0 °F 69% 30.43 in 10.0 mi Calm Calm - N/A   Clear
10:15 AM 35.6 °F - 26.6 °F 70% 30.43 in 10.0 mi Calm Calm - N/A   Clear
10:35 AM 37.4 °F - 21.2 °F 52% 30.42 in 10.0 mi Calm Calm - N/A   Clear
10:55 AM 41.0 °F - 19.4 °F 42% 30.42 in 10.0 mi Calm Calm - N/A   Clear
11:15 AM 42.8 °F - 23.0 °F 46% 30.42 in 10.0 mi Calm Calm - N/A   Clear
11:35 AM 46.4 °F - 12.2 °F 25% 30.41 in 10.0 mi Calm Calm - N/A   Clear
11:55 AM 48.2 °F - 14.0 °F 25% 30.40 in 10.0 mi Calm Calm - N/A   Clear
12:15 PM 50.0 °F - 12.2 °F 22% 30.39 in 10.0 mi Calm Calm - N/A   Clear
12:35 PM 51.8 °F - 14.0 °F 22% 30.37 in 10.0 mi Calm Calm - N/A   Clear
1:15 PM 53.6 °F - 14.0 °F 21% 30.35 in 10.0 mi Calm Calm - N/A   Clear
1:35 PM 53.6 °F - 12.2 °F 19% 30.34 in 10.0 mi NNE 3.5 mph - N/A   Clear
1:55 PM 55.4 °F - 14.0 °F 20% 30.34 in 10.0 mi SE 4.6 mph - N/A   Clear
2:15 PM 55.4 °F - 14.0 °F 20% 30.32 in 10.0 mi North 3.5 mph - N/A   Clear
2:35 PM 55.4 °F - 14.0 °F 20% 30.32 in 10.0 mi NE 4.6 mph - N/A   Clear
3:15 PM 57.2 °F - 14.0 °F 18% 30.31 in 10.0 mi Calm Calm - N/A   Clear
3:35 PM 57.2 °F - 14.0 °F 18% 30.30 in 10.0 mi Calm Calm - N/A   Clear
3:55 PM 57.2 °F - 15.8 °F 20% 30.30 in 10.0 mi WSW 4.6 mph - N/A   Clear
4:15 PM 57.2 °F - 17.6 °F 21% 30.30 in 10.0 mi WSW 9.2 mph - N/A   Clear
4:35 PM 55.4 °F - 15.8 °F 21% 30.30 in 10.0 mi SW 9.2 mph - N/A   Clear
4:55 PM 55.4 °F - 15.8 °F 21% 30.31 in 10.0 mi WSW 8.1 mph - N/A   Clear
5:15 PM 53.6 °F - 19.4 °F 26% 30.30 in 10.0 mi Calm Calm - N/A   Clear
5:35 PM 48.2 °F - 24.8 °F 40% 30.30 in 10.0 mi Calm Calm - N/A   Clear
5:55 PM 42.8 °F 41.1 °F 28.4 °F 57% 30.31 in 10.0 mi WSW 3.5 mph - N/A   Clear
6:15 PM 37.4 °F 34.9 °F 28.4 °F 70% 30.31 in 10.0 mi WSW 3.5 mph - N/A   Clear
6:35 PM 35.6 °F - 28.4 °F 75% 30.32 in 10.0 mi Calm Calm - N/A   Clear
6:55 PM 33.8 °F - 28.4 °F 81% 30.33 in 10.0 mi Calm Calm - N/A   Clear
7:35 PM 32.0 °F 28.7 °F 26.6 °F 80% 30.34 in 10.0 mi WSW 3.5 mph - N/A   Clear
7:55 PM 32.0 °F - 26.6 °F 80% 30.35 in 10.0 mi Calm Calm - N/A   Clear
8:15 PM 32.0 °F - 26.6 °F 80% 30.35 in 10.0 mi Calm Calm - N/A   Clear
8:35 PM 30.2 °F - 26.6 °F 86% 30.36 in 10.0 mi Calm Calm - N/A   Clear
8:55 PM 30.2 °F - 26.6 °F 86% 30.36 in 10.0 mi Calm Calm - N/A   Clear
9:15 PM 30.2 °F - 26.6 °F 86% 30.36 in 10.0 mi Calm Calm - N/A   Clear
9:35 PM 28.4 °F - 24.8 °F 86% 30.37 in 10.0 mi Calm Calm - N/A   Clear
9:55 PM 28.4 °F - 24.8 °F 86% 30.37 in 10.0 mi Calm Calm - N/A   Clear
10:15 PM 28.4 °F - 24.8 °F 86% 30.37 in 10.0 mi Calm Calm - N/A   Clear
10:35 PM 28.4 °F - 24.8 °F 86% 30.37 in 10.0 mi Calm Calm - N/A   Clear
10:55 PM 28.4 °F 24.6 °F 24.8 °F 86% 30.37 in 10.0 mi WSW 3.5 mph - N/A   Clear
11:15 PM 28.4 °F - 23.0 °F 80% 30.37 in 10.0 mi Calm Calm - N/A   Clear
11:55 PM 26.6 °F - 23.0 °F 86% 30.38 in 10.0 mi Calm Calm - N/A   Clear